GW3097 Weather Reports


Display with metric or nautical units.
time (UTC)temp
F
wind
direction
speed
MPH
gust
MPH
rain 1hr
in
rain 24hr
in
rain mn
in
humidity
%
barometer
mb
20260504201845 71 190 9.0 14.0 0.00 0.00 0.00 33 1039.0
20260504201343 71 204 8.0 14.0 0.00 0.00 0.00 34 1039.0
20260504200840 71 238 7.0 13.0 0.00 0.00 0.00 34 1039.3
20260504200337 71 221 7.0 14.0 0.00 0.00 0.00 34 1039.0
20260504195833 70 236 9.0 18.0 0.00 0.00 0.00 33 1038.9
20260504195329 70 238 7.0 18.0 0.00 0.00 0.00 34 1039.2
20260504194826 70 215 7.0 16.0 0.00 0.00 0.00 34 1039.3
20260504194322 70 209 6.0 11.0 0.00 0.00 0.00 34 1039.4
20260504193818 71 248 7.0 11.0 0.00 0.00 0.00 33 1039.6
20260504193316 69 241 5.0 14.0 0.00 0.00 0.00 35 1039.3
20260504192814 70 196 8.0 16.0 0.00 0.00 0.00 33 1039.5
20260504192312 70 291 12.0 16.0 0.00 0.00 0.00 34 1039.7
20260504191810 69 231 11.0 18.0 0.00 0.00 0.00 34 1039.6
20260504191307 69 224 12.0 21.0 0.00 0.00 0.00 34 1039.6
20260504190802 70 234 7.0 10.0 0.00 0.00 0.00 35 1039.6
20260504190259 69 211 14.0 25.0 0.00 0.00 0.00 34 1039.6
20260504185755 69 226 11.0 16.0 0.00 0.00 0.00 34 1039.7
20260504185252 69 196 10.0 19.0 0.00 0.00 0.00 35 1039.6
20260504184748 69 244 13.0 18.0 0.00 0.00 0.00 34 1039.7
20260504184244 70 248 11.0 18.0 0.00 0.00 0.00 35 1039.8
20260504183740 69 217 12.0 16.0 0.00 0.00 0.00 35 1039.9
20260504183237 69 213 6.0 10.0 0.00 0.00 0.00 35 1039.7
20260504182735 68 188 9.0 18.0 0.00 0.00 0.00 35 1039.9
20260504182232 69 199 12.0 16.0 0.00 0.00 0.00 35 1040.1
20260504181730 68 217 14.0 17.0 0.00 0.00 0.00 35 1039.8
20260504181227 69 208 8.0 15.0 0.00 0.00 0.00 35 1040.0
20260504180726 69 213 10.0 17.0 0.00 0.00 0.00 34 1040.1
20260504180224 69 219 12.0 17.0 0.00 0.00 0.00 34 1039.8
20260504175722 69 242 8.0 17.0 0.00 0.00 0.00 35 1040.1
20260504175218 67 206 11.0 19.0 0.00 0.00 0.00 34 1040.2
20260504174716 68 242 9.0 17.0 0.00 0.00 0.00 34 1040.3
20260504174214 68 202 7.0 19.0 0.00 0.00 0.00 35 1040.4
20260504173710 68 221 6.0 15.0 0.00 0.00 0.00 36 1040.3
20260504173207 67 200 9.0 14.0 0.00 0.00 0.00 36 1040.4
20260504172704 66 214 9.0 17.0 0.00 0.00 0.00 36 1040.3
20260504172200 67 236 8.0 16.0 0.00 0.00 0.00 36 1040.7
20260504171657 68 235 8.0 14.0 0.00 0.00 0.00 35 1040.3
20260504171154 67 237 15.0 21.0 0.00 0.00 0.00 35 1040.5
20260504170650 67 181 10.0 15.0 0.00 0.00 0.00 35 1040.5
20260504170148 66 255 7.0 14.0 0.00 0.00 0.00 36 1040.8
20260504151033 60 222 4.0 13.0 0.00 0.00 0.00 38 1042.1
20260504150531 61 216 13.0 16.0 0.00 0.00 0.00 37 1042.3
20260504140956 56 191 5.0 8.0 0.00 0.00 0.00 42 1042.8
20260504140453 55 239 5.0 11.0 0.00 0.00 0.00 42 1042.9
20260504130418 53 231 9.0 13.0 0.00 0.00 0.00 46 1043.3
20260504110304 45 248 1.0 2.0 0.00 0.00 0.00 61 1043.4
20260504100223 41 242 1.0 2.0 0.00 0.00 0.00 67 1043.2
20260504081616 43 238 3.0 3.0 0.00 0.00 0.00 63 1043.5
20260504081111 44 252 1.0 4.0 0.00 0.00 0.00 62 1043.4
20260504080609 43 253 2.0 3.0 0.00 0.00 0.00 63 1043.3
20260504080105 43 255 0.0 3.0 0.00 0.00 0.00 63 1043.3
20260504050415 46 261 2.0 3.0 0.00 0.00 0.00 57 1043.0
20260504045913 46 247 3.0 3.0 0.00 0.00 0.00 56 1043.2
20260504045408 46 273 2.0 2.0 0.00 0.00 0.00 56 1043.1
20260504044905 46 248 2.0 3.0 0.00 0.00 0.00 56 1043.0
20260504044402 45 274 1.0 2.0 0.00 0.00 0.00 57 1042.9
20260504043900 46 268 2.0 2.0 0.00 0.00 0.00 56 1042.9
20260504043356 46 266 2.0 3.0 0.00 0.00 0.00 56 1042.9
20260504042854 46 261 2.0 2.0 0.00 0.00 0.00 56 1043.0
20260504042350 45 256 2.0 2.0 0.00 0.00 0.00 56 1042.7
20260504041846 45 266 2.0 2.0 0.00 0.00 0.00 57 1042.9
20260504041343 46 268 0.0 1.0 0.00 0.00 0.00 57 1042.8
20260504040839 46 263 1.0 2.0 0.00 0.00 0.00 56 1042.7
20260504040337 46 252 1.0 2.0 0.00 0.00 0.00 55 1042.8
20260504035832 46 247 3.0 3.0 0.00 0.00 0.00 55 1042.6
20260504035330 46 264 2.0 3.0 0.00 0.00 0.00 55 1042.6
20260504034827 46 236 3.0 4.0 0.00 0.00 0.00 55 1042.7
20260504034325 46 265 2.0 3.0 0.00 0.00 0.00 56 1042.8
20260504033821 47 260 1.0 3.0 0.00 0.00 0.00 55 1042.7
20260504033319 47 238 4.0 4.0 0.00 0.00 0.00 55 1042.5
20260504032815 47 239 2.0 6.0 0.00 0.00 0.00 55 1042.7
20260504032313 47 235 3.0 4.0 0.00 0.00 0.00 53 1042.8
20260504031810 47 266 2.0 6.0 0.00 0.00 0.00 53 1042.7
20260504031307 47 234 4.0 6.0 0.00 0.00 0.00 53 1042.6
20260504030803 47 238 3.0 4.0 0.00 0.00 0.00 53 1042.9
20260504030300 47 256 2.0 4.0 0.00 0.00 0.00 53 1042.8
20260504025756 47 264 1.0 2.0 0.00 0.00 0.00 53 1042.5
20260504025253 48 267 1.0 2.0 0.00 0.00 0.00 52 1042.6
20260504024750 48 240 2.0 3.0 0.00 0.00 0.00 51 1042.5
20260504024247 48 268 2.0 3.0 0.00 0.00 0.00 50 1042.7
20260504023744 48 254 2.0 3.0 0.00 0.00 0.00 50 1042.7
20260504023240 48 258 3.0 4.0 0.00 0.00 0.00 51 1042.6
20260504022736 48 267 2.0 3.0 0.00 0.00 0.00 52 1042.7
20260504022232 48 266 2.0 3.0 0.00 0.00 0.00 51 1042.7
20260504021730 49 251 2.0 3.0 0.00 0.00 0.00 50 1042.5
20260504021227 49 244 3.0 6.0 0.00 0.00 0.00 48 1042.8
20260504020723 48 248 2.0 3.0 0.00 0.00 0.00 49 1042.7
20260504020220 49 263 1.0 2.0 0.00 0.00 0.00 50 1042.7
20260504015716 48 230 1.0 2.0 0.00 0.00 0.00 51 1042.7
20260504015213 48 249 1.0 2.0 0.00 0.00 0.00 51 1042.8
20260504014708 48 250 0.0 0.0 0.00 0.00 0.00 51 1042.6
20260504014206 49 264 1.0 2.0 0.00 0.00 0.00 50 1042.5
20260504013703 49 249 0.0 2.0 0.00 0.00 0.00 49 1042.6
20260504013200 50 249 1.0 2.0 0.00 0.00 0.00 49 1042.7
20260504012657 49 249 1.0 2.0 0.00 0.00 0.00 50 1042.4
20260504012155 49 249 1.0 1.0 0.00 0.00 0.00 50 1042.2
20260504011652 49 249 0.0 1.0 0.00 0.00 0.00 49 1042.3
20260504011148 49 249 1.0 1.0 0.00 0.00 0.00 48 1042.2
20260504010644 50 254 1.0 2.0 0.00 0.00 0.00 48 1042.1
20260504010139 49 273 0.0 1.0 0.00 0.00 0.00 48 1042.1
20260504005637 50 271 0.0 1.0 0.00 0.00 0.00 46 1042.2
20260504005133 50 273 1.0 1.0 0.00 0.00 0.00 47 1041.9
20260504004632 50 272 1.0 2.0 0.00 0.00 0.00 46 1042.0
20260504004129 49 278 2.0 2.0 0.00 0.00 0.00 48 1042.2
20260504003625 50 274 2.0 2.0 0.00 0.00 0.00 48 1042.1
20260504003122 50 278 3.0 3.0 0.00 0.00 0.00 48 1042.1
20260504002618 50 273 1.0 2.0 0.00 0.00 0.00 47 1041.8
20260504002116 51 275 1.0 2.0 0.00 0.00 0.00 47 1041.8
20260504001614 51 276 1.0 2.0 0.00 0.00 0.00 45 1041.9
20260504001109 52 275 1.0 1.0 0.00 0.00 0.00 44 1041.8
20260504000607 53 270 1.0 2.0 0.00 0.00 0.00 42 1041.5
20260504000104 53 253 3.0 3.0 0.00 0.00 0.00 40 1041.7
20260503235603 54 267 3.0 3.0 0.00 0.00 0.00 39 1041.7
20260503235059 54 266 3.0 6.0 0.00 0.00 0.00 39 1041.8
20260503234557 54 246 4.0 6.0 0.00 0.00 0.00 38 1041.4
20260503234055 54 266 3.0 4.0 0.00 0.00 0.00 38 1041.7
20260503233551 54 266 1.0 3.0 0.00 0.00 0.00 39 1041.4
20260503233047 55 271 2.0 7.0 0.00 0.00 0.00 39 1041.5
20260503232544 55 266 6.0 8.0 0.00 0.00 0.00 37 1041.7
20260503232042 55 254 2.0 3.0 0.00 0.00 0.00 38 1041.7
20260503231539 55 275 2.0 4.0 0.00 0.00 0.00 37 1041.5
20260503231036 55 266 4.0 6.0 0.00 0.00 0.00 37 1041.7
20260503230532 55 282 6.0 9.0 0.00 0.00 0.00 37 1041.7
20260503230030 55 257 4.0 6.0 0.00 0.00 0.00 36 1041.3
20260503225527 55 247 4.0 6.0 0.00 0.00 0.00 36 1041.3
20260503225021 55 285 4.0 8.0 0.00 0.00 0.00 37 1041.5
20260503224519 56 277 6.0 11.0 0.00 0.00 0.00 36 1041.5
20260503224011 56 272 9.0 15.0 0.00 0.00 0.00 35 1041.4
20260503223509 56 193 7.0 10.0 0.00 0.00 0.00 36 1041.3
20260503223004 56 283 5.0 10.0 0.00 0.00 0.00 36 1041.3
20260503222503 56 269 5.0 11.0 0.00 0.00 0.00 36 1041.4
20260503222001 56 249 6.0 8.0 0.00 0.00 0.00 36 1041.3
20260503221459 55 291 7.0 11.0 0.00 0.00 0.00 36 1041.3
20260503220955 56 259 8.0 16.0 0.00 0.00 0.00 35 1041.5
20260503220446 55 277 7.0 8.0 0.00 0.00 0.00 36 1041.2
20260503215943 55 248 5.0 13.0 0.00 0.00 0.00 37 1041.8
20260503215439 56 274 5.0 11.0 0.00 0.00 0.00 36 1041.7
20260503214937 56 234 9.0 15.0 0.00 0.00 0.00 35 1041.5
20260503214435 55 268 6.0 16.0 0.00 0.00 0.00 36 1041.3
20260503213932 55 270 8.0 13.0 0.00 0.00 0.00 36 1041.7
20260503213430 56 253 10.0 18.0 0.00 0.00 0.00 35 1041.3
20260503212926 56 271 7.0 9.0 0.00 0.00 0.00 35 1041.3
20260503212424 56 281 12.0 19.0 0.00 0.00 0.00 35 1041.4
20260503211921 55 310 8.0 22.0 0.00 0.00 0.00 34 1041.4
20260503211418 56 255 11.0 14.0 0.00 0.00 0.00 33 1041.2
20260503210913 55 271 6.0 18.0 0.00 0.00 0.00 33 1041.1
20260503210410 55 252 9.0 10.0 0.00 0.00 0.00 33 1041.4
20260503205905 55 264 14.0 17.0 0.00 0.00 0.00 33 1041.7
20260503205403 56 302 11.0 15.0 0.00 0.00 0.00 32 1041.4
20260503204858 58 242 11.0 13.0 0.00 0.00 0.00 30 1041.0
20260503204356 57 277 11.0 14.0 0.00 0.00 0.00 32 1040.7
20260503203853 56 243 3.0 10.0 0.00 0.00 0.00 30 1041.1
20260503203350 57 276 8.0 14.0 0.00 0.00 0.00 31 1041.1
20260503202847 56 285 4.0 14.0 0.00 0.00 0.00 32 1040.9
20260503202345 56 281 8.0 17.0 0.00 0.00 0.00 31 1041.2